This is the latest recevied weather packets stored in our database for station/object EA2MKR. If no packets are shown the sender has not sent any weather packets the latest 1 day(s).
| Time | Temp. | Humidity | Pressure | Rain* | Wind** | Luminosity | Snow |
|---|---|---|---|---|---|---|---|
| 1778087362 | 13.33° C | 71% | 950.1 hPa | 0 mm | - | - | - |
| 1778086162 | 13.89° C | 68% | 950 hPa | 0 mm | - | - | - |
| 1778084361 | 13.33° C | 73% | 949.9 hPa | 0 mm | - | - | - |
| 1778082261 | 12.78° C | 78% | 950.1 hPa | 0 mm | - | - | - |
| 1778081960 | 12.22° C | 82% | 950.1 hPa | 0 mm | - | - | - |
| 1778081660 | 12.22° C | 82% | 950.2 hPa | 0 mm | - | - | - |
| 1778081060 | 12.22° C | 80% | 950.3 hPa | 0 mm | - | - | - |
| 1778080760 | 12.22° C | 80% | 950.3 hPa | 0 mm | - | - | - |
| 1778080160 | 12.22° C | 78% | 950.4 hPa | 0 mm | - | - | - |
| 1778079560 | 12.78° C | 75% | 950.2 hPa | 0 mm | - | - | - |
| 1778078730 | 13.33° C | 77% | 950.3 hPa | 0 mm | - | - | - |
| 1778078359 | 12.78° C | 76% | 950.3 hPa | 0 mm | - | - | - |
| 1778076859 | 13.33° C | 73% | 950.4 hPa | 0 mm | - | - | - |
| 1778076558 | 13.33° C | 74% | 950.5 hPa | 0 mm | - | - | - |
| 1778075958 | 13.89° C | 71% | 950.6 hPa | 0 mm | - | - | - |
| 1778075058 | 12.78° C | 74% | 950.6 hPa | 0 mm | - | - | - |
| 1778073858 | 12.22° C | 73% | 950.7 hPa | 0 mm | - | - | - |
| 1778072657 | 12.78° C | 76% | 950.6 hPa | 0 mm | - | - | - |
| 1778071456 | 12.78° C | 73% | 950.4 hPa | 0 mm | - | - | - |
| 1778070856 | 12.78° C | 73% | 950.5 hPa | 0 mm | - | - | - |
| 1778070556 | 12.78° C | 74% | 950.4 hPa | 0 mm | - | - | - |
| 1778070256 | 12.78° C | 73% | 950.4 hPa | 0 mm | - | - | - |
| 1778068226 | 12.22° C | 75% | 950.6 hPa | 0 mm | - | - | - |
| 1778067255 | 12.22° C | 73% | 950.6 hPa | 0 mm | - | - | - |
| 1778066955 | 12.22° C | 76% | 950.7 hPa | 0 mm | - | - | - |
* Rain latest hour (hover to see other rain measurements)
** Current wind speed in m/s (hover to see current wind gust speed)